[Date Prev][Date Next][Thread Prev][Thread Next] - [Date Index][Thread Index][Author Index]

2 Line ISS Keps 5-1



ISS
1 25544U 98067A   01121.10822633  .00064761  00000-0  82530-3 0  9243
2 25544  51.5706 325.9448 0016816 358.5806 145.2842 15.58533747139724

----
Via the sarex mailing list at AMSAT.ORG courtesy of AMSAT-NA.
To unsubscribe, send "unsubscribe sarex" to Majordomo@amsat.org



AMSAT Top AMSAT Home